GSAT0221 (PRN E15) (43564 NORAD) Tracking and Keplerian Element Data

This shows tracking and keplerian element data for the satellite.

Feedback or suggestion? Click here.




ElementValue
Catalog43564
NameGSAT0221 (PRN E15)
Epoch Orbit193
Epoch Day319.04129036
Epoch Year2018
RAAN57.0143
Inclination56.406
Eccentricity0.0004417
Argument of Perigee251.9523
Mean Anonmoly108.0068
Mean Motion1.70476528
Decay Rate-6.1E-07
L11 43564U 18060A 18319.04129036 -.00000061 00000-0 00000+0 0 9991
L22 43564 56.4060 57.0143 0004417 251.9523 108.0068 1.70476528 1934

Live tracking and technical data element details for GSAT0221 (PRN E15) (NORAD 43564). GSAT0221 (PRN E15) can be tracked NOW for your location showing map with azimuth and elevation plus other details from your city location.

Track the satellite on the map from your city or location and see movement details for azimuth, elevation, latitude, longitude, range, height, and movement on the map or in text.







IsCatalogInMostPopularTable: catalog: 43564, numindb: 36
Update: records affected: 1



GetName: 43564 GSAT0221 (PRN E15)

Hit Count: updated at: Sat, 17 Nov 2018 02:27:59 GMT